Visibility
15.0 15.0 15.0 15.0 15.0 15.0 15.0 15.0 15.0 15.0 6.0 10.8 15.0 15.0 0.9 0.2 4.6 6.5 15.0 13.7 0.2 10.7 11.1 12.9 8.5 14.2 5.1 3.7 8.5 7.1 15.0 15.0 6.2 0.0 0.1 1.0 0.2 1.6 15.0 15.0 15.0 15.0 15.0
15.0 15.0 15.0 15.0 15.0 15.0 15.0 15.0 15.0 15.0 11.4 9.7 15.0 15.0 15.0 3.0 1.0 0.2 0.3 14.0 0.6 13.7 15.0 6.7 14.5 13.6 2.1 4.5 10.4 13.6 14.7 15.0 6.3 0.0 0.0 0.1 0.1 4.0 14.4 15.0 15.0 15.0 14.4
15.0 15.0 15.0 15.0 15.0 15.0 15.0 15.0 15.0 15.0 15.0 12.2 3.8 14.4 15.0 14.6 15.0 6.7 15.0 15.0 15.0 15.0 15.0 12.8 9.3 15.0 3.7 3.0 2.7 7.3 7.7 9.0 15.0 0.0 0.0 0.2 0.4 5.7 0.9 5.6 14.2 4.2 14.2
15.0 15.0 15.0 15.0 15.0 15.0 15.0 15.0 15.0 15.0 15.0 7.6 12.6 4.7 15.0 15.0 15.0 15.0 15.0 15.0 15.0 15.0 15.0 15.0 15.0 15.0 10.1 5.1 2.3 2.6 3.5 5.9 4.0 0.2 0.1 0.1 2.0 0.3 14.8 5.3 0.8 9.3 6.9
15.0 15.0 15.0 15.0 15.0 15.0 15.0 15.0 15.0 15.0 15.0 13.7 4.6 6.0 6.6 15.0 12.5 15.0 15.0 15.0 15.0 15.0 15.0 15.0 15.0 15.0 2.7 2.2 4.6 0.3 3.1 4.7 4.1 0.1 0.1 0.1 0.1 0.1 0.3 2.6 0.6 2.8 1.5
15.0 15.0 15.0 15.0 15.0 15.0 15.0 15.0 15.0 15.0 15.0 15.0 0.3 3.9 14.5 15.0 0.1 0.0 0.3 1.0 15.0 15.0 2.8 6.8 15.0 0.1 0.1 0.1 0.1 1.4 3.6 9.5 8.9 1.0 1.4 0.4 12.9 4.6 5.3 0.4 0.8 3.8 2.3
15.0 15.0 15.0 15.0 15.0 15.0 15.0 15.0 15.0 15.0 15.0 15.0 0.1 5.2 0.8 0.7 0.0 0.0 0.0 15.0 10.8 14.2 15.0 0.1 0.0 0.1 0.1 0.0 0.0 0.2 3.7 6.6 4.2 10.0 0.8 9.9 4.8 12.1 9.9 0.5 1.0 3.3 0.9
15.0 15.0 15.0 15.0 15.0 15.0 15.0 15.0 15.0 15.0 15.0 7.1 0.1 0.1 0.1 0.1 0.1 0.0 0.0 0.1 0.1 0.1 0.1 0.0 0.0 0.0 0.0 0.0 0.1 0.0 0.0 0.1 0.1 1.7 6.2 6.0 10.2 10.7 6.8 8.0 1.4 0.4 0.4
15.0 15.0 15.0 15.0 15.0 15.0 15.0 15.0 15.0 15.0 15.0 0.1 0.1 0.1 0.1 0.1 0.2 0.1 0.1 0.1 0.1 0.1 0.1 0.1 0.1 0.0 0.2 0.1 0.1 0.1 0.2 0.1 2.5 6.2 4.2 4.8 5.1 5.0 3.6 0.6 0.4 0.5 0.5
15.0 15.0 15.0 15.0 15.0 15.0 15.0 15.0 15.0 15.0 0.3 0.2 0.1 0.1 0.1 0.1 6.5 12.8 1.0 0.5 0.1 0.1 0.1 0.1 0.6 0.1 3.7 15.0 2.6 4.5 0.8 0.2 0.3 0.3 0.2 0.5 1.5 1.0 0.6 7.0 0.5 0.7 0.6
15.0 15.0 15.0 15.0 15.0 15.0 15.0 15.0 14.0 0.1 0.2 0.2 0.1 0.1 0.2 3.2 1.4 15.0 15.0 1.8 0.6 0.2 0.1 0.1 0.2 14.2 0.9 2.4 10.0 12.9 1.0 0.4 0.3 0.4 0.5 0.4 0.6 0.5 0.5 0.3 0.4 0.7 0.2
15.0 15.0 15.0 15.0 15.0 15.0 15.0 15.0 0.2 0.6 0.3 0.2 0.2 0.4 0.1 0.3 13.2 15.0 15.0 15.0 15.0 3.4 0.1 0.9 7.2 15.0 15.0 6.2 0.7 0.4 0.3 0.4 0.5 0.4 0.3 0.4 0.5 0.4 0.3 0.5 0.5 1.0 2.4
15.0 11.3 15.0 15.0 15.0 15.0 8.8 2.0 0.1 1.5 14.1 14.3 15.0 13.2 2.4 0.2 0.6 15.0 15.0 15.0 12.6 4.9 2.5 3.0 4.6 15.0 15.0 7.6 2.0 0.7 0.5 0.5 0.4 0.5 0.5 0.3 0.4 0.5 0.6 0.8 1.3 13.7 15.0
1.5 5.0 14.8 14.2 15.0 15.0 15.0 1.6 0.1 0.1 0.1 13.8 15.0 15.0 0.4 0.2 0.2 11.0 10.8 9.0 3.8 2.0 1.3 2.0 8.2 6.5 5.1 3.2 7.7 3.8 4.4 2.0 1.6 1.7 0.7 0.7 2.0 3.3 6.0 8.4 15.0 15.0 15.0
6.8 6.9 8.0 13.8 7.0 10.0 15.0 0.8 0.1 6.8 0.5 15.0 15.0 15.0 0.6 0.4 0.3 8.3 13.7 14.1 10.1 5.4 2.9 3.7 7.1 15.0 15.0 15.0 15.0 15.0 4.4 3.2 8.4 13.1 15.0 15.0 15.0 15.0 15.0 14.7 15.0 15.0 15.0
2.8 3.2 2.1 2.0 6.3 7.3 9.5 15.0 14.5 2.3 5.8 8.0 5.5 11.7 0.5 0.3 0.2 0.4 2.4 6.8 14.8 9.6 7.9 8.5 11.6 11.5 7.0 13.3 9.1 5.9 7.4 8.7 15.0 15.0 15.0 15.0 15.0 15.0 15.0 15.0 15.0 15.0 15.0
1.2 3.7 12.8 1.9 2.7 1.3 6.9 7.9 1.8 5.3 0.3 0.1 0.1 0.1 0.4 0.5 0.4 0.3 0.3 0.9 2.0 1.9 3.4 1.7 0.7 0.9 0.6 2.0 4.3 5.7 0.4 0.2 0.2 1.4 2.1 15.0 15.0 15.0 14.8 9.0 15.0 15.0 15.0
3.3 1.2 2.6 1.2 0.5 1.8 4.0 0.4 2.9 2.3 0.2 0.1 0.1 0.1 0.1 0.2 0.3 0.3 0.2 0.3 0.2 0.7 1.1 0.8 0.4 1.1 1.3 0.3 0.2 0.1 0.1 1.0 2.6 1.8 1.9 4.0 11.2 15.0 12.0 15.0 15.0 15.0 15.0
1.1 0.1 0.2 0.1 0.1 0.1 0.1 5.2 3.8 0.4 0.1 0.1 0.1 0.1 0.1 0.1 0.1 0.2 0.4 0.3 0.2 0.1 0.3 0.4 0.7 0.7 0.2 0.1 0.1 0.1 0.2 0.7 1.1 1.6 3.3 8.8 14.8 15.0 15.0 15.0 15.0 15.0 15.0
0.2 0.9 0.4 0.2 0.1 0.1 0.1 0.8 0.4 0.2 0.2 0.1 0.1 0.1 0.1 0.1 0.1 0.1 0.1 0.1 0.1 0.1 0.1 0.1 0.1 0.1 0.1 0.1 0.1 0.5 1.1 1.3 1.5 2.6 14.3 15.0 15.0 15.0 15.0 15.0 15.0 15.0 15.0
0.1 0.2 0.2 0.1 0.1 0.1 0.1 0.1 0.1 0.1 0.1 0.1 0.1 0.1 0.1 0.1 0.1 0.1 0.1 0.1 0.1 0.1 0.1 0.1 0.1 0.1 0.1 0.5 0.9 1.3 1.9 2.1 9.6 15.0 14.2 15.0 15.0 15.0 15.0 15.0 15.0 15.0 15.0
0.3 0.2 0.2 0.1 0.1 0.1 0.1 0.1 0.2 0.1 0.1 0.1 0.1 0.1 0.1 0.1 0.1 0.1 0.1 0.1 0.1 0.1 0.1 0.1 0.2 0.6 0.9 1.2 1.4 2.0 3.6 9.4 15.0 15.0 15.0 15.0 15.0 15.0 15.0 15.0 15.0 15.0 15.0
5.2 0.3 0.2 0.2 0.1 0.1 0.1 0.1 0.1 0.1 0.1 0.1 0.1 0.1 0.1 0.1 0.1 0.1 0.1 0.1 0.1 0.1 0.1 0.6 0.8 0.7 1.0 1.6 7.3 15.0 13.2 5.9 14.1 15.0 15.0 15.0 15.0 15.0 15.0 15.0 15.0 15.0 9.0
15.0 5.6 0.3 0.1 0.1 0.1 0.1 0.1 0.1 0.1 0.1 0.1 0.1 0.1 0.1 0.1 0.1 0.1 0.1 0.1 0.5 0.9 0.9 0.9 1.4 1.9 2.7 2.8 6.1 15.0 15.0 15.0 15.0 15.0 15.0 15.0 15.0 15.0 15.0 15.0 15.0 15.0 15.0
5.0 4.9 5.0 0.6 0.2 0.1 0.1 0.1 0.1 0.1 0.1 0.1 0.1 0.1 0.1 0.1 0.1 0.3 0.8 0.8 0.8 1.0 1.1 1.5 1.4 1.8 4.4 15.0 15.0 15.0 15.0 15.0 15.0 15.0 15.0 15.0 15.0 15.0 15.0 15.0 15.0 15.0 14.0
2.5 2.8 1.1 1.1 0.9 0.7 0.2 0.1 0.1 0.1 0.1 0.1 0.1 0.1 0.1 0.1 0.3 0.8 0.9 1.2 1.1 1.0 1.4 2.2 6.1 13.4 15.0 15.0 15.0 15.0 15.0 15.0 15.0 15.0 15.0 15.0 15.0 15.0 15.0 15.0 15.0 12.0 15.0